[[{"header":{"parameterUnit":"m.s-1","parameterCategory":1,"la1":30.2991,"la2":30.254,"lo1":-89.0895,"lo2":-89.0444,"dy":0.0017,"dx":0.0017,"nx":28,"ny":28,"refTime":"2024-05-09T03:00:00:Z","depth":0,"parameterNumber":2,"parameterNumberName":"U-component_of_WINDS"},"data":[0,0,0,0,0,0,0,0,0,0,0,0,0,0,0,0,0,0,0,0,0,0,0,0,0,0,0,0,0,0,0,0,0,0,0,0,0,0,0,0,0,0,0,0,0,0,0,0,0,0,0,0,0,0,0,0,0,0,0.7203,0.7204,0,0.7295,0.7296,0.7297,0.7287,0.7285,0.7284,0.7283,0.7382,0.7386,0.739,0,0,0,0,0,0,0,0,0,0,0,0,0,0.7023,0.7026,0.7203,0.7204,0.7205,0.7295,0.7296,0.7297,0.7287,0.7285,0.7284,0.7282,0.738,0.7385,0.739,0,0,0,0,0,0,0,0,0,0,0,0,0,0.7107,0.7028,0.7203,0.7211,0.7212,0.7294,0.7296,0.7298,0.7288,0.7285,0.7283,0.7281,0.7379,0.7385,0.7391,0.7472,0,0,0.7409,0.7412,0,0,0,0,0,0,0,0,0.7102,0.7113,0.7209,0.721,0.7212,0.7277,0.7269,0.7356,0.7288,0.7259,0.7283,0.728,0.7349,0.7357,0.738,0.7477,0.7481,0.741,0.7413,0.7416,0.7417,0,0,0,0,0,0,0,0.7096,0.7109,0.7239,0.721,0.7212,0.7211,0.7221,0.7285,0.7316,0.7262,0.7261,0.7272,0.735,0.7374,0.7382,0.7482,0.7409,0.7415,0.7418,0.7421,0.7651,0.7654,0,0,0,0,0,0,0.7088,0.7105,0.7237,0.7242,0.7151,0.7216,0.7227,0.7259,0.7315,0.7321,0.7274,0.7271,0.7365,0.7375,0.7385,0.7485,0.7416,0.7421,0.7425,0.7649,0.7652,0.7655,0,0,0,0,0,0,0.7084,0.71,0.7233,0.7173,0.719,0.7222,0.7258,0.7262,0.7286,0.7324,0.733,0.7292,0.7363,0.7377,0.745,0.7488,0.7424,0.743,0.7646,0.765,0.7653,0.7684,0,0,0,0,0,0,0.7079,0.7098,0.7129,0.7174,0.7193,0.7295,0.726,0.7265,0.7295,0.7293,0.7343,0.7349,0.7363,0.7441,0.7456,0.7495,0.7434,0.7643,0.7648,0.7652,0.768,0.7688,0.7695,0,0,0,0,0,0.7073,0.7134,0.713,0.7146,0.7231,0.7297,0.7308,0.7321,0.7298,0.733,0.7354,0.7348,0.7481,0.7449,0.7466,0.7507,0.764,0.7646,0.7652,0.7676,0.7686,0.7695,0,0,0,0,0,0,0.7094,0.7141,0.7136,0.7214,0.7252,0.7295,0.7335,0.7332,0.7377,0.7373,0.7389,0.74,0.7474,0.7498,0.7461,0.7589,0.7558,0.7567,0.7571,0.7581,0.7589,0.7582,0.7439,0,0,0,0,0,0.7108,0.7156,0.7194,0.726,0.7278,0.7303,0.7333,0.7339,0.7379,0.7395,0.7425,0.7465,0.7516,0.755,0.7599,0.7683,0.7694,0.7719,0.7727,0.7733,0.7742,0.7789,0.7801,0.7673,0.7673,0.7673,0,0,0.7137,0.7168,0.7198,0.7265,0.7294,0.7345,0.7317,0.7372,0.741,0.7404,0.7475,0.7498,0.7544,0.7623,0.766,0.7645,0.7779,0.7741,0.7745,0.775,0.7796,0.7808,0.7818,0.7677,0.7676,0.7676,0,0,0.7216,0.7244,0.7302,0.7332,0.7376,0.7393,0.7407,0.7451,0.7465,0.7536,0.7533,0.7579,0.7667,0.77,0.7728,0.7819,0.7815,0.7835,0.7877,0.7923,0.7933,0.7942,0.7975,0.7987,0.7843,0.7843,0.7843,0,0.7248,0.7322,0.7332,0.7388,0.7418,0.7413,0.7472,0.7501,0.756,0.7582,0.7564,0.7674,0.7705,0.7791,0.7814,0.7836,0.7854,0.783,0.793,0.7939,0.7948,0.798,0.7993,0.7845,0.7845,0.7845,0.7845,0,0.7359,0.7411,0.7453,0.7508,0.7543,0.76,0.762,0.7654,0.7657,0.7676,0.7749,0.7785,0.7841,0.7862,0.7867,0.795,0.794,0.7926,0.7896,0.7962,0.7993,0.8005,0.7848,0.7848,0.7847,0.7846,0,0,0.7455,0.7515,0.753,0.7555,0.7604,0.7645,0.7703,0.7756,0.7786,0.7827,0.7876,0.795,0.7937,0.7969,0.7977,0.8017,0.8088,0.7998,0.8,0.8015,0.8184,0.8194,0.8208,0.8085,0.8087,0.8089,0.818,0,0.754,0.764,0.7651,0.774,0.7789,0.7785,0.7835,0.7871,0.789,0.7935,0.7957,0.8009,0.7988,0.8007,0.8046,0.8071,0.8122,0.8065,0.8133,0.8135,0.8122,0.8224,0.8236,0.832,0.8192,0.8194,0.8195,0,0.7652,0.7695,0.7789,0.7831,0.7852,0.7897,0.7947,0.799,0.8031,0.8042,0.8077,0.808,0.8141,0.8107,0.8192,0.8152,0.8181,0.8197,0.8201,0.8209,0.817,0.8236,0.8347,0.836,0.8214,0.8213,0.8211,0,0.7714,0.7795,0.7862,0.7884,0.7934,0.7966,0.7989,0.8028,0.8059,0.8104,0.8125,0.8176,0.8205,0.8245,0.8262,0.8235,0.8346,0.8313,0.8358,0.8358,0.8383,0.8381,0.8501,0.8399,0.8399,0.8399,0.8399,0,0.7808,0.7867,0.7891,0.7932,0.7997,0.801,0.8074,0.8096,0.8131,0.8177,0.8177,0.8221,0.824,0.8288,0.8302,0.837,0.8383,0.8395,0.8398,0.8396,0.8394,0.8415,0.841,0.8402,0.8402,0.8401,0.84,0,0.7889,0.7907,0.798,0.8022,0.8033,0.808,0.8116,0.8157,0.8174,0.8234,0.8248,0.8277,0.8333,0.8353,0.8422,0.8431,0.8511,0.8509,0.8497,0.8498,0.8542,0.8538,0.868,0.87,0.8585,0.8586,0.8586,0,0.7948,0.7993,0.8039,0.8069,0.8092,0.8142,0.8173,0.8187,0.8221,0.8271,0.8306,0.8361,0.8406,0.8496,0.8524,0.8577,0.8577,0.8623,0.8585,0.8581,0.8579,0.8576,0.8581,0.863,0.8632,0.8633,0.8633,0,0.8052,0.8059,0.8104,0.8153,0.819,0.823,0.8268,0.8293,0.8313,0.8351,0.8407,0.8442,0.8511,0.8567,0.862,0.8646,0.8644,0.8645,0.8658,0.8657,0.8648,0.8654,0.8517,0.8642,0.8641,0.864,0.864,0.864,0.8124,0.8164,0.8202,0.8253,0.8283,0.8319,0.8359,0.8381,0.8428,0.8484,0.849,0.8551,0.8592,0.8663,0.8691,0.874,0.8727,0.8747,0.8752,0.8757,0.876,0.8639,0.875,0.8749,0.8749,0.8749,0.8749,0,0.8229,0.8253,0.8299,0.8352,0.8392,0.8385,0.8427,0.8462,0.8515,0.8552,0.8596,0.8661,0.8715,0.8746,0.88,0.8834,0.8834,0.8847,0.8846,0.8852,0.8768,0.8751,0.8846,0.8846,0.8846,0.8846,0.8846,0.8846,0.8288,0.8354,0.8366,0.8448,0.8472,0.853,0.8555,0.8589,0.8618,0.8691,0.8735,0.8754,0.879,0.8847,0.8896,0.8904,0.8925,0.8939,0.8947,0.8868,0.8858,0.8848,0.8833,0.8943,0.8944,0.9027,0.9028,0.9028]},{"header":{"parameterUnit":"m.s-1","parameterCategory":1,"la1":30.2991,"la2":30.254,"lo1":-89.0895,"lo2":-89.0444,"dy":0.0017,"dx":0.0017,"nx":28,"ny":28,"refTime":"2024-05-09T03:00:00:Z","depth":0,"parameterNumber":3,"parameterNumberName":"V-component_of_WINDS"},"data":[0,0,0,0,0,0,0,0,0,0,0,0,0,0,0,0,0,0,0,0,0,0,0,0,0,0,0,0,0,0,0,0,0,0,0,0,0,0,0,0,0,0,0,0,0,0,0,0,0,0,0,0,0,0,0,0,0,0,5.3939,5.394,0,5.4004,5.4005,5.4005,5.3963,5.3961,5.3959,5.3958,5.4018,5.4022,5.4025,0,0,0,0,0,0,0,0,0,0,0,0,0,5.3776,5.3779,5.3939,5.394,5.3941,5.4004,5.4005,5.4005,5.3964,5.3961,5.3959,5.3957,5.4017,5.4021,5.4025,0,0,0,0,0,0,0,0,0,0,0,0,0,5.3844,5.378,5.3939,5.3928,5.3927,5.4004,5.4005,5.4006,5.3964,5.3961,5.3958,5.3956,5.4016,5.4021,5.4026,5.4115,0,0,5.4042,5.4044,0,0,0,0,0,0,0,0,5.3841,5.385,5.3929,5.3929,5.3928,5.3973,5.3969,5.4042,5.3965,5.395,5.3958,5.3954,5.4005,5.4011,5.4029,5.4118,5.4121,5.4042,5.4045,5.4047,5.4049,0,0,0,0,0,0,0,5.3836,5.3847,5.3965,5.393,5.393,5.3918,5.3925,5.3983,5.3993,5.3951,5.3948,5.3957,5.4005,5.4024,5.403,5.4122,5.4042,5.4047,5.405,5.4052,5.4289,5.4292,0,0,0,0,0,0,5.3833,5.3844,5.3963,5.3967,5.3877,5.3924,5.3931,5.3961,5.3992,5.3994,5.3959,5.3955,5.4017,5.4024,5.4032,5.4141,5.4047,5.4052,5.4055,5.4286,5.429,5.4293,0,0,0,0,0,0,5.3829,5.3844,5.396,5.3905,5.3918,5.3929,5.3964,5.3964,5.3984,5.3998,5.3999,5.3978,5.4015,5.4025,5.4096,5.4142,5.4054,5.4059,5.4282,5.4287,5.4291,5.4357,0,0,0,0,0,0,5.3825,5.3843,5.3878,5.3906,5.3922,5.4024,5.3967,5.3967,5.3994,5.3988,5.4016,5.4018,5.4014,5.4089,5.4101,5.4147,5.4063,5.4278,5.4284,5.429,5.435,5.4363,5.4374,0,0,0,0,0,5.3819,5.3892,5.388,5.3894,5.3966,5.4026,5.4035,5.403,5.3997,5.4032,5.4042,5.4017,5.4135,5.4096,5.411,5.4158,5.4275,5.4282,5.4289,5.4345,5.4361,5.4374,0,0,0,0,0,0,5.3866,5.3895,5.3882,5.3966,5.3995,5.4019,5.4063,5.4047,5.4083,5.4077,5.4067,5.4074,5.4148,5.416,5.4116,5.4247,5.42,5.421,5.4237,5.4252,5.4264,5.4259,5.4067,0,0,0,0,0,5.3887,5.3935,5.3957,5.4029,5.4044,5.4052,5.4078,5.4072,5.41,5.4111,5.4126,5.4153,5.4196,5.4224,5.4265,5.4352,5.4358,5.4392,5.4404,5.4414,5.4423,5.4471,5.4487,5.4317,5.4317,5.4317,0,0,5.3929,5.3951,5.3981,5.4039,5.4061,5.411,5.4062,5.4115,5.4152,5.4119,5.4187,5.4199,5.4229,5.4309,5.4344,5.4321,5.4471,5.4423,5.443,5.4434,5.448,5.4496,5.4511,5.4322,5.4321,5.432,0,0,5.4031,5.4053,5.4116,5.4139,5.4173,5.4178,5.4193,5.4221,5.4228,5.4298,5.4274,5.4317,5.4391,5.4414,5.4435,5.4549,5.4528,5.4562,5.4624,5.4671,5.4685,5.4696,5.4738,5.4753,5.4571,5.4571,5.4571,0,5.4079,5.4154,5.415,5.4207,5.4233,5.4208,5.4272,5.4294,5.4338,5.4357,5.433,5.4425,5.4443,5.4528,5.4557,5.4574,5.4591,5.4559,5.4683,5.4695,5.4706,5.4746,5.4761,5.4575,5.4575,5.4574,5.4574,0,5.4212,5.4264,5.4311,5.4358,5.439,5.445,5.4454,5.4486,5.4478,5.4485,5.4556,5.4577,5.4623,5.4642,5.4633,5.4727,5.4712,5.4685,5.4636,5.4726,5.4764,5.4779,5.4581,5.458,5.4578,5.4577,0,0,5.4344,5.439,5.4407,5.4429,5.4466,5.4506,5.4565,5.4611,5.464,5.4672,5.4721,5.4786,5.4762,5.4786,5.4779,5.4821,5.4912,5.4789,5.4789,5.4812,5.5018,5.5039,5.5056,5.4898,5.4901,5.4903,5.5016,0,5.4449,5.4555,5.4554,5.4651,5.47,5.4678,5.4729,5.4757,5.4766,5.4808,5.4816,5.4863,5.4827,5.4842,5.4882,5.4892,5.4953,5.4884,5.4944,5.4946,5.4938,5.5076,5.5097,5.5202,5.503,5.5032,5.5034,0,5.4586,5.4626,5.4729,5.4761,5.4781,5.4828,5.4872,5.4912,5.4943,5.4947,5.4976,5.4963,5.5023,5.4973,5.5055,5.5008,5.5033,5.5042,5.5046,5.5051,5.4996,5.5086,5.5235,5.5252,5.5057,5.5055,5.5053,0,5.4674,5.4753,5.4826,5.4845,5.4883,5.4917,5.4934,5.4962,5.4991,5.5029,5.5047,5.509,5.5114,5.5147,5.5147,5.5111,5.5231,5.5181,5.5235,5.5235,5.5261,5.526,5.5418,5.5276,5.5276,5.5275,5.5275,0,5.4792,5.4856,5.4866,5.491,5.4982,5.498,5.505,5.5063,5.5089,5.5136,5.5118,5.5161,5.5158,5.5202,5.5202,5.5271,5.5281,5.5285,5.5285,5.5288,5.5287,5.5303,5.5296,5.528,5.5279,5.5278,5.5277,0,5.4902,5.4911,5.4989,5.502,5.503,5.5081,5.5107,5.5149,5.5157,5.5216,5.523,5.5242,5.5293,5.5296,5.5354,5.5354,5.5438,5.5428,5.5428,5.5427,5.5481,5.5477,5.5656,5.568,5.5522,5.5523,5.5525,0,5.4977,5.5027,5.5065,5.5096,5.5116,5.5165,5.5195,5.5195,5.5227,5.5268,5.5305,5.5355,5.5395,5.5477,5.549,5.5535,5.5527,5.5587,5.5533,5.5535,5.5529,5.5527,5.5532,5.5597,5.5599,5.56,5.5602,0,5.511,5.5113,5.5158,5.5206,5.5244,5.528,5.5315,5.5341,5.5345,5.5381,5.5435,5.5466,5.5527,5.5577,5.5621,5.5637,5.5621,5.5619,5.5634,5.5637,5.5636,5.5638,5.5457,5.5614,5.5613,5.5612,5.5611,5.5611,5.5206,5.5249,5.5284,5.5335,5.5362,5.5395,5.5437,5.5452,5.5497,5.5548,5.5545,5.5604,5.5635,5.5693,5.5713,5.5759,5.5738,5.576,5.5765,5.5771,5.5777,5.5628,5.5767,5.5766,5.5766,5.5766,5.5765,0,5.5338,5.536,5.5408,5.5458,5.5499,5.5482,5.552,5.5555,5.5608,5.5639,5.568,5.5742,5.5791,5.5809,5.5856,5.5889,5.5883,5.5902,5.5899,5.5904,5.5792,5.5775,5.5906,5.5906,5.5906,5.5906,5.5906,5.5906,5.5412,5.5486,5.5493,5.558,5.5601,5.5661,5.5684,5.5714,5.574,5.5811,5.5852,5.5864,5.5891,5.594,5.5984,5.5988,5.6007,5.6029,5.603,5.5926,5.5911,5.5898,5.5882,5.6033,5.6033,5.6138,5.6139,5.6139]}]]